| time (UTC) | temp F | wind direction | speed MPH | gust MPH | rain 1hr in | rain 24hr in | rain mn in | humidity % | barometer mb |
| 20260510044849 | 46 | 164 | 0.0 | 0.0 | 0.00 | 0.04 | 0.04 | 81 | 1020.6 |
| 20260510043359 | 46 | 164 | 0.0 | 0.0 | 0.00 | 0.04 | 0.04 | 80 | 1020.7 |
| 20260510041840 | 46 | 167 | 0.0 | 0.0 | 0.00 | 0.04 | 0.04 | 78 | 1020.6 |
| 20260510040335 | 47 | 211 | 0.0 | 0.0 | 0.00 | 0.04 | 0.04 | 77 | 1020.4 |
| 20260510034828 | 47 | 223 | 0.0 | 0.0 | 0.00 | 0.04 | 0.04 | 77 | 1020.6 |
| 20260510033357 | 48 | 265 | 0.0 | 0.0 | 0.00 | 0.04 | 0.04 | 77 | 1020.5 |
| 20260510031850 | 48 | 266 | 0.0 | 0.0 | 0.00 | 0.04 | 0.04 | 75 | 1020.4 |
| 20260510030359 | 49 | 276 | 0.0 | 0.0 | 0.00 | 0.04 | 0.04 | 73 | 1020.2 |
| 20260510024830 | 50 | 347 | 0.0 | 0.0 | 0.00 | 0.04 | 0.04 | 71 | 1020.1 |
| 20260510023401 | 50 | 355 | 0.0 | 0.0 | 0.00 | 0.04 | 0.04 | 68 | 1019.9 |
| 20260510021847 | 51 | 5 | 0.0 | 0.0 | 0.00 | 0.04 | 0.04 | 68 | 1019.6 |
| 20260510020343 | 52 | 355 | 0.0 | 2.0 | 0.00 | 0.04 | 0.04 | 67 | 1019.4 |
| 20260510014839 | 53 | 17 | 0.0 | 2.0 | 0.00 | 0.04 | 0.04 | 64 | 1019.3 |
| 20260510013334 | 53 | 309 | 0.0 | 0.0 | 0.00 | 0.04 | 0.04 | 64 | 1018.9 |
| 20260510011829 | 52 | 309 | 0.0 | 2.0 | 0.00 | 0.04 | 0.04 | 64 | 1018.8 |
| 20260510010337 | 52 | 298 | 0.0 | 2.0 | 0.00 | 0.04 | 0.04 | 63 | 1018.7 |
| 20260510004835 | 52 | 294 | 0.0 | 2.0 | 0.00 | 0.04 | 0.04 | 65 | 1018.6 |
| 20260510003340 | 52 | 5 | 0.0 | 0.0 | 0.00 | 0.04 | 0.04 | 66 | 1018.4 |
| 20260510001832 | 52 | 323 | 0.0 | 2.0 | 0.00 | 0.04 | 0.04 | 65 | 1018.3 |
| 20260510000358 | 53 | 291 | 1.0 | 5.0 | 0.00 | 0.04 | 0.04 | 62 | 1018.3 |
| 20260509234827 | 54 | 355 | 0.0 | 6.0 | 0.00 | 0.04 | 0.04 | 67 | 1018.1 |
| 20260509233416 | 52 | 287 | 0.0 | 5.0 | 0.00 | 0.04 | 0.04 | 67 | 1018.2 |
| 20260509231857 | 49 | 313 | 1.0 | 7.0 | 0.00 | 0.04 | 0.04 | 75 | 1018.3 |
| 20260509230329 | 48 | 283 | 1.0 | 10.0 | 0.00 | 0.04 | 0.04 | 76 | 1018.3 |
| 20260509224854 | 49 | 331 | 4.0 | 13.0 | 0.00 | 0.04 | 0.04 | 73 | 1018.3 |
| 20260509223328 | 50 | 308 | 5.0 | 19.0 | 0.00 | 0.04 | 0.04 | 69 | 1018.1 |
| 20260509221828 | 56 | 5 | 1.0 | 5.0 | 0.00 | 0.04 | 0.04 | 64 | 1017.7 |
| 20260509220328 | 57 | 322 | 1.0 | 8.0 | 0.00 | 0.04 | 0.04 | 64 | 1017.6 |
| 20260509214833 | 55 | 315 | 0.0 | 5.0 | 0.01 | 0.04 | 0.04 | 71 | 1017.7 |
| 20260509213355 | 53 | 244 | 0.0 | 2.0 | 0.01 | 0.04 | 0.04 | 77 | 1017.7 |
| 20260509211821 | 54 | 87 | 0.0 | 6.0 | 0.01 | 0.04 | 0.04 | 80 | 1017.7 |
| 20260509210353 | 51 | 274 | 0.0 | 4.0 | 0.01 | 0.04 | 0.04 | 86 | 1017.7 |
| 20260509204840 | 49 | 105 | 0.0 | 2.0 | 0.02 | 0.03 | 0.03 | 87 | 1017.7 |
| 20260509203332 | 49 | 26 | 0.0 | 0.0 | 0.02 | 0.03 | 0.03 | 85 | 1017.7 |
| 20260509201830 | 48 | 312 | 0.0 | 0.0 | 0.02 | 0.03 | 0.03 | 86 | 1017.7 |
| 20260509200347 | 49 | 193 | 0.0 | 2.0 | 0.02 | 0.03 | 0.03 | 84 | 1017.7 |
| 20260509194856 | 53 | 206 | 0.0 | 2.0 | 0.00 | 0.01 | 0.01 | 77 | 1017.1 |
| 20260509193418 | 56 | 42 | 1.0 | 3.0 | 0.00 | 0.01 | 0.01 | 62 | 1016.5 |
| 20260509191854 | 57 | 250 | 0.0 | 3.0 | 0.00 | 0.01 | 0.01 | 57 | 1016.5 |
| 20260509190327 | 56 | 32 | 1.0 | 6.0 | 0.00 | 0.01 | 0.01 | 62 | 1016.7 |
| 20260509184904 | 57 | 238 | 0.0 | 4.0 | 0.00 | 0.01 | 0.01 | 58 | 1016.7 |
| 20260509163337 | 50 | 280 | 1.0 | 5.0 | 0.00 | 0.00 | 0.00 | 71 | 1016.8 |
| 20260509161852 | 50 | 315 | 0.0 | 3.0 | 0.00 | 0.00 | 0.00 | 72 | 1016.7 |
| 20260509160342 | 50 | 59 | 1.0 | 7.0 | 0.00 | 0.00 | 0.00 | 72 | 1016.5 |
| 20260509154850 | 49 | 328 | 1.0 | 4.0 | 0.00 | 0.00 | 0.00 | 76 | 1016.4 |
| 20260509153334 | 49 | 299 | 1.0 | 7.0 | 0.00 | 0.00 | 0.00 | 73 | 1016.0 |
| 20260509151850 | 49 | 302 | 2.0 | 8.0 | 0.00 | 0.00 | 0.00 | 74 | 1015.9 |
| 20260509150351 | 49 | 279 | 1.0 | 7.0 | 0.00 | 0.00 | 0.00 | 75 | 1015.5 |
| 20260509144845 | 50 | 14 | 1.0 | 5.0 | 0.00 | 0.00 | 0.00 | 71 | 1015.5 |
| 20260509143350 | 51 | 271 | 1.0 | 7.0 | 0.00 | 0.00 | 0.00 | 69 | 1015.2 |
| 20260509141838 | 52 | 299 | 2.0 | 6.0 | 0.00 | 0.00 | 0.00 | 67 | 1014.6 |
| 20260509140344 | 52 | 286 | 0.0 | 6.0 | 0.00 | 0.00 | 0.00 | 67 | 1014.2 |
| 20260509134838 | 51 | 310 | 0.0 | 2.0 | 0.00 | 0.00 | 0.00 | 67 | 1014.2 |
| 20260509133339 | 51 | 245 | 0.0 | 2.0 | 0.00 | 0.00 | 0.00 | 66 | 1013.9 |
| 20260509131847 | 50 | 275 | 0.0 | 2.0 | 0.00 | 0.00 | 0.00 | 67 | 1013.6 |
| 20260509130346 | 50 | 252 | 0.0 | 2.0 | 0.00 | 0.00 | 0.00 | 68 | 1013.6 |
| 20260509124842 | 50 | 325 | 0.0 | 2.0 | 0.00 | 0.00 | 0.00 | 69 | 1013.5 |
| 20260509123338 | 50 | 222 | 0.0 | 2.0 | 0.00 | 0.00 | 0.00 | 69 | 1013.3 |
| 20260509121837 | 50 | 355 | 0.0 | 2.0 | 0.00 | 0.00 | 0.00 | 68 | 1013.1 |
| 20260509120328 | 50 | 273 | 0.0 | 3.0 | 0.00 | 0.00 | 0.00 | 67 | 1013.0 |
| 20260509114828 | 50 | 298 | 1.0 | 4.0 | 0.00 | 0.00 | 0.00 | 67 | 1012.9 |
| 20260509113344 | 50 | 305 | 0.0 | 3.0 | 0.00 | 0.00 | 0.00 | 67 | 1012.6 |
| 20260509111824 | 50 | 334 | 0.0 | 2.0 | 0.00 | 0.00 | 0.00 | 68 | 1012.4 |
| 20260509110342 | 51 | 307 | 0.0 | 2.0 | 0.00 | 0.00 | 0.00 | 66 | 1012.4 |
| 20260509104836 | 51 | 296 | 1.0 | 5.0 | 0.00 | 0.01 | 0.00 | 65 | 1012.3 |
| 20260509103326 | 51 | 360 | 2.0 | 6.0 | 0.00 | 0.01 | 0.00 | 66 | 1012.0 |
| 20260509101826 | 51 | 296 | 2.0 | 6.0 | 0.00 | 0.01 | 0.00 | 66 | 1012.0 |
| 20260509100331 | 51 | 315 | 1.0 | 9.0 | 0.00 | 0.01 | 0.00 | 65 | 1012.0 |
| 20260509094842 | 52 | 321 | 3.0 | 9.0 | 0.00 | 0.01 | 0.00 | 63 | 1011.7 |
| 20260509093325 | 52 | 298 | 0.0 | 7.0 | 0.00 | 0.01 | 0.00 | 61 | 1011.7 |
| 20260509091841 | 54 | 9 | 1.0 | 11.0 | 0.00 | 0.01 | 0.00 | 56 | 1011.4 |
| 20260509090332 | 55 | 252 | 2.0 | 7.0 | 0.00 | 0.01 | 0.00 | 52 | 1010.8 |
| 20260509084833 | 56 | 330 | 1.0 | 4.0 | 0.00 | 0.01 | 0.00 | 51 | 1010.7 |
| 20260509083337 | 55 | 318 | 1.0 | 4.0 | 0.00 | 0.01 | 0.00 | 51 | 1010.5 |
| 20260509081825 | 55 | 360 | 1.0 | 3.0 | 0.00 | 0.01 | 0.00 | 53 | 1010.1 |
| 20260509080342 | 56 | 254 | 0.0 | 2.0 | 0.00 | 0.01 | 0.00 | 49 | 1009.8 |
| 20260509074850 | 57 | 278 | 0.0 | 2.0 | 0.00 | 0.01 | 0.00 | 48 | 1009.6 |
| 20260509073341 | 56 | 348 | 1.0 | 8.0 | 0.00 | 0.01 | 0.00 | 49 | 1009.6 |
| 20260509071856 | 55 | 273 | 0.0 | 2.0 | 0.00 | 0.01 | 0.00 | 54 | 1009.5 |
| 20260509070330 | 54 | 299 | 0.0 | 3.0 | 0.00 | 0.01 | 0.00 | 55 | 1009.7 |
| 20260509064828 | 54 | 244 | 0.0 | 0.0 | 0.00 | 0.01 | 0.00 | 58 | 1009.5 |
| 20260509063401 | 53 | 227 | 0.0 | 2.0 | 0.00 | 0.01 | 0.00 | 60 | 1009.5 |
| 20260509061840 | 51 | 219 | 0.0 | 0.0 | 0.00 | 0.01 | 0.00 | 64 | 1009.5 |
| 20260509060331 | 51 | 71 | 0.0 | 0.0 | 0.00 | 0.01 | 0.00 | 67 | 1009.4 |
| 20260509054828 | 50 | 142 | 0.0 | 0.0 | 0.00 | 0.01 | 0.01 | 69 | 1009.4 |
| 20260509053402 | 51 | 142 | 0.0 | 0.0 | 0.00 | 0.01 | 0.01 | 70 | 1009.2 |
| 20260509051826 | 51 | 155 | 0.0 | 0.0 | 0.00 | 0.01 | 0.01 | 70 | 1009.1 |
| 20260509050340 | 51 | 155 | 0.0 | 0.0 | 0.00 | 0.01 | 0.01 | 69 | 1009.0 |